| time (UTC) | temp F | wind direction | speed knots | gust knots | rain 1hr in | rain 24hr in | rain mn in | humidity % | barometer mb |
| 20260505053524 | 41 | 338 | 1.7 | 7.0 | 0.00 | 0.00 | 0.00 | 60 | 1013.1 |
| 20260505053035 | 41 | 5 | 2.6 | 7.8 | 0.00 | 0.00 | 0.00 | 61 | 1013.1 |
| 20260505052528 | 41 | 360 | 3.5 | 8.7 | 0.00 | 0.00 | 0.00 | 63 | 1013.1 |
| 20260505052026 | 41 | 5 | 4.3 | 9.6 | 0.00 | 0.00 | 0.00 | 63 | 1013.1 |
| 20260505051536 | 41 | 355 | 7.0 | 11.3 | 0.00 | 0.00 | 0.00 | 64 | 1013.0 |
| 20260505051024 | 41 | 360 | 4.3 | 11.3 | 0.00 | 0.00 | 0.00 | 64 | 1013.0 |
| 20260505050521 | 41 | 5 | 4.3 | 10.4 | 0.00 | 0.00 | 0.00 | 64 | 1013.1 |
| 20260505041520 | 42 | 35 | 2.6 | 8.7 | 0.00 | 0.00 | 0.00 | 61 | 1013.1 |
| 20260505041018 | 42 | 56 | 4.3 | 11.3 | 0.00 | 0.00 | 0.00 | 61 | 1013.1 |
| 20260505040515 | 42 | 27 | 6.1 | 11.3 | 0.00 | 0.00 | 0.00 | 60 | 1013.0 |
| 20260505040013 | 42 | 360 | 7.0 | 10.4 | 0.00 | 0.00 | 0.00 | 59 | 1013.0 |
| 20260505035515 | 42 | 12 | 7.0 | 11.3 | 0.00 | 0.00 | 0.00 | 58 | 1012.9 |
| 20260505035011 | 42 | 5 | 7.0 | 11.3 | 0.00 | 0.00 | 0.00 | 59 | 1012.9 |
| 20260505034511 | 42 | 344 | 4.3 | 11.3 | 0.00 | 0.00 | 0.00 | 59 | 1012.9 |
| 20260505034015 | 42 | 346 | 5.2 | 12.2 | 0.00 | 0.00 | 0.00 | 58 | 1012.9 |
| 20260505033509 | 43 | 342 | 7.8 | 12.2 | 0.00 | 0.00 | 0.00 | 57 | 1012.9 |
| 20260505033009 | 43 | 14 | 7.8 | 12.2 | 0.00 | 0.00 | 0.00 | 57 | 1012.8 |
| 20260505032508 | 43 | 5 | 7.8 | 13.0 | 0.00 | 0.00 | 0.00 | 57 | 1012.7 |
| 20260505032006 | 43 | 36 | 6.1 | 13.0 | 0.00 | 0.00 | 0.00 | 58 | 1012.6 |
| 20260505031509 | 43 | 360 | 7.8 | 13.9 | 0.00 | 0.00 | 0.00 | 58 | 1012.5 |
| 20260505031011 | 43 | 5 | 8.7 | 12.2 | 0.00 | 0.00 | 0.00 | 58 | 1012.5 |
| 20260505030507 | 43 | 28 | 6.1 | 11.3 | 0.00 | 0.00 | 0.00 | 58 | 1012.5 |
| 20260505030003 | 43 | 11 | 7.8 | 11.3 | 0.00 | 0.00 | 0.00 | 58 | 1012.4 |
| 20260505025502 | 43 | 24 | 6.1 | 13.9 | 0.00 | 0.00 | 0.00 | 57 | 1012.4 |
| 20260505025001 | 43 | 20 | 7.8 | 13.9 | 0.00 | 0.00 | 0.00 | 56 | 1012.3 |
| 20260505024601 | 43 | 32 | 8.7 | 17.4 | 0.00 | 0.00 | 0.00 | 56 | 1012.2 |
| 20260505024100 | 43 | 10 | 13.0 | 18.2 | 0.00 | 0.00 | 0.00 | 55 | 1012.2 |
| 20260505023558 | 43 | 20 | 10.4 | 18.2 | 0.00 | 0.00 | 0.00 | 54 | 1012.1 |
| 20260505023104 | 43 | 15 | 9.6 | 14.8 | 0.00 | 0.00 | 0.00 | 54 | 1012.0 |
| 20260505022557 | 43 | 9 | 8.7 | 13.9 | 0.00 | 0.00 | 0.00 | 54 | 1012.2 |
| 20260505022057 | 44 | 22 | 9.6 | 13.9 | 0.00 | 0.00 | 0.00 | 54 | 1012.1 |
| 20260505021557 | 44 | 9 | 9.6 | 14.8 | 0.00 | 0.00 | 0.00 | 53 | 1012.0 |
| 20260505021055 | 44 | 351 | 10.4 | 14.8 | 0.00 | 0.00 | 0.00 | 53 | 1012.0 |
| 20260505020555 | 44 | 5 | 7.0 | 14.8 | 0.00 | 0.00 | 0.00 | 53 | 1012.0 |
| 20260505020056 | 44 | 17 | 8.7 | 14.8 | 0.00 | 0.00 | 0.00 | 54 | 1011.9 |
| 20260505015555 | 44 | 350 | 7.0 | 12.2 | 0.00 | 0.00 | 0.00 | 54 | 1011.9 |
| 20260505015055 | 44 | 16 | 6.1 | 13.9 | 0.00 | 0.00 | 0.00 | 54 | 1011.8 |
| 20260505014558 | 44 | 336 | 7.0 | 13.9 | 0.00 | 0.00 | 0.00 | 54 | 1011.8 |
| 20260505014053 | 44 | 342 | 6.1 | 12.2 | 0.00 | 0.00 | 0.00 | 54 | 1011.9 |
| 20260505013552 | 44 | 355 | 6.1 | 13.0 | 0.00 | 0.00 | 0.00 | 54 | 1011.9 |
| 20260505013056 | 44 | 349 | 8.7 | 13.9 | 0.00 | 0.00 | 0.00 | 53 | 1011.8 |
| 20260505012552 | 45 | 346 | 7.8 | 13.9 | 0.00 | 0.00 | 0.00 | 53 | 1011.9 |
| 20260505012053 | 45 | 355 | 7.8 | 13.0 | 0.00 | 0.00 | 0.00 | 52 | 1011.9 |
| 20260505011554 | 45 | 351 | 5.2 | 13.9 | 0.00 | 0.00 | 0.00 | 52 | 1011.8 |
| 20260505011051 | 45 | 5 | 8.7 | 14.8 | 0.00 | 0.00 | 0.00 | 52 | 1011.8 |
| 20260505010551 | 45 | 36 | 8.7 | 14.8 | 0.00 | 0.00 | 0.00 | 51 | 1011.7 |
| 20260505010110 | 46 | 28 | 9.6 | 14.8 | 0.00 | 0.00 | 0.00 | 50 | 1011.9 |
| 20260505005551 | 46 | 23 | 7.0 | 16.5 | 0.00 | 0.00 | 0.00 | 50 | 1011.8 |
| 20260505005051 | 46 | 15 | 8.7 | 16.5 | 0.00 | 0.00 | 0.00 | 50 | 1011.7 |
| 20260505004551 | 46 | 5 | 9.6 | 14.8 | 0.00 | 0.00 | 0.00 | 49 | 1011.8 |
| 20260505004050 | 47 | 347 | 9.6 | 18.2 | 0.00 | 0.00 | 0.00 | 49 | 1011.6 |
| 20260505003549 | 47 | 29 | 9.6 | 13.9 | 0.00 | 0.00 | 0.00 | 50 | 1011.7 |
| 20260505003053 | 48 | 350 | 8.7 | 13.9 | 0.00 | 0.00 | 0.00 | 50 | 1011.6 |
| 20260505002548 | 48 | 360 | 8.7 | 13.0 | 0.00 | 0.00 | 0.00 | 52 | 1011.5 |
| 20260505002048 | 48 | 22 | 7.0 | 13.9 | 0.00 | 0.00 | 0.00 | 52 | 1011.6 |
| 20260505001548 | 49 | 22 | 9.6 | 13.9 | 0.00 | 0.00 | 0.00 | 51 | 1011.7 |
| 20260505001051 | 49 | 13 | 7.8 | 14.8 | 0.00 | 0.00 | 0.00 | 52 | 1011.5 |
| 20260505000549 | 49 | 5 | 7.8 | 14.8 | 0.00 | 0.00 | 0.00 | 52 | 1011.5 |
| 20260505000049 | 49 | 13 | 8.7 | 13.0 | 0.00 | 0.00 | 0.00 | 51 | 1011.6 |
| 20260504235548 | 49 | 347 | 7.8 | 12.2 | 0.00 | 0.00 | 0.00 | 51 | 1011.5 |
| 20260504235048 | 50 | 9 | 6.1 | 14.8 | 0.00 | 0.00 | 0.00 | 51 | 1011.4 |
| 20260504234547 | 50 | 21 | 10.4 | 14.8 | 0.00 | 0.00 | 0.00 | 51 | 1011.4 |
| 20260504234047 | 50 | 347 | 9.6 | 13.9 | 0.00 | 0.00 | 0.00 | 51 | 1011.4 |
| 20260504233549 | 50 | 5 | 7.0 | 13.9 | 0.00 | 0.00 | 0.00 | 50 | 1011.4 |
| 20260504233047 | 50 | 340 | 7.0 | 13.9 | 0.00 | 0.00 | 0.00 | 50 | 1011.4 |
| 20260504232547 | 51 | 355 | 9.6 | 13.9 | 0.00 | 0.00 | 0.00 | 50 | 1011.4 |
| 20260504232046 | 51 | 62 | 5.2 | 12.2 | 0.00 | 0.00 | 0.00 | 50 | 1011.4 |
| 20260504231548 | 50 | 69 | 6.1 | 14.8 | 0.00 | 0.00 | 0.00 | 52 | 1011.4 |
| 20260504231046 | 50 | 55 | 7.8 | 14.8 | 0.00 | 0.00 | 0.00 | 51 | 1011.3 |
| 20260504230549 | 50 | 28 | 5.2 | 12.2 | 0.00 | 0.00 | 0.00 | 51 | 1011.4 |
| 20260504230048 | 50 | 35 | 7.0 | 14.8 | 0.00 | 0.00 | 0.00 | 51 | 1011.3 |
| 20260504225545 | 50 | 360 | 7.0 | 15.6 | 0.00 | 0.00 | 0.00 | 51 | 1011.4 |
| 20260504225045 | 51 | 25 | 8.7 | 15.6 | 0.00 | 0.00 | 0.00 | 49 | 1011.3 |
| 20260504224545 | 51 | 30 | 6.1 | 15.6 | 0.00 | 0.00 | 0.00 | 51 | 1011.2 |
| 20260504224045 | 50 | 18 | 7.8 | 15.6 | 0.00 | 0.00 | 0.00 | 51 | 1011.2 |
| 20260504223546 | 50 | 5 | 8.7 | 15.6 | 0.00 | 0.00 | 0.00 | 51 | 1011.2 |
| 20260504223058 | 50 | 37 | 5.2 | 15.6 | 0.00 | 0.00 | 0.00 | 52 | 1010.9 |
| 20260504222547 | 49 | 46 | 10.4 | 15.6 | 0.00 | 0.00 | 0.00 | 52 | 1011.2 |
| 20260504222043 | 49 | 348 | 10.4 | 14.8 | 0.00 | 0.00 | 0.00 | 51 | 1011.2 |
| 20260504221645 | 50 | 13 | 7.8 | 15.6 | 0.00 | 0.00 | 0.00 | 50 | 1011.2 |
| 20260504221043 | 50 | 355 | 11.3 | 15.6 | 0.00 | 0.00 | 0.00 | 50 | 1011.1 |
| 20260504220543 | 51 | 17 | 9.6 | 15.6 | 0.00 | 0.00 | 0.00 | 49 | 1011.0 |
| 20260504220043 | 51 | 355 | 7.8 | 14.8 | 0.00 | 0.00 | 0.00 | 48 | 1011.1 |
| 20260504215543 | 52 | 355 | 7.8 | 18.2 | 0.00 | 0.00 | 0.00 | 47 | 1011.2 |
| 20260504215045 | 52 | 355 | 9.6 | 18.2 | 0.00 | 0.00 | 0.00 | 48 | 1011.2 |
| 20260504214542 | 52 | 360 | 11.3 | 15.6 | 0.00 | 0.00 | 0.00 | 48 | 1011.2 |
| 20260504214042 | 52 | 5 | 9.6 | 15.6 | 0.00 | 0.00 | 0.00 | 47 | 1011.3 |
| 20260504213541 | 53 | 317 | 8.7 | 15.6 | 0.00 | 0.00 | 0.00 | 47 | 1011.3 |
| 20260504213058 | 52 | 351 | 9.6 | 15.6 | 0.00 | 0.00 | 0.00 | 48 | 1011.1 |
| 20260504212541 | 53 | 5 | 7.8 | 15.6 | 0.00 | 0.00 | 0.00 | 47 | 1011.2 |
| 20260504212044 | 52 | 32 | 7.8 | 14.8 | 0.00 | 0.00 | 0.00 | 48 | 1011.3 |
| 20260504211546 | 51 | 54 | 8.7 | 20.0 | 0.00 | 0.00 | 0.00 | 49 | 1011.2 |
| 20260504211039 | 52 | 360 | 12.2 | 20.0 | 0.00 | 0.00 | 0.00 | 46 | 1011.4 |
| 20260504210540 | 54 | 315 | 11.3 | 17.4 | 0.00 | 0.00 | 0.00 | 45 | 1011.2 |
| 20260504210039 | 53 | 13 | 7.8 | 17.4 | 0.00 | 0.00 | 0.00 | 47 | 1011.2 |
| 20260504205542 | 54 | 349 | 10.4 | 17.4 | 0.00 | 0.00 | 0.00 | 45 | 1011.3 |
| 20260504205038 | 54 | 332 | 12.2 | 18.2 | 0.00 | 0.00 | 0.00 | 45 | 1011.3 |
| 20260504204537 | 55 | 315 | 9.6 | 18.2 | 0.00 | 0.00 | 0.00 | 46 | 1011.2 |
| 20260504204038 | 54 | 5 | 12.2 | 18.2 | 0.00 | 0.00 | 0.00 | 46 | 1011.2 |
| 20260504203536 | 54 | 329 | 9.6 | 15.6 | 0.00 | 0.00 | 0.00 | 46 | 1011.1 |
| 20260504203046 | 53 | 341 | 8.7 | 15.6 | 0.00 | 0.00 | 0.00 | 48 | 1011.2 |
| 20260504202536 | 52 | 342 | 9.6 | 18.2 | 0.00 | 0.00 | 0.00 | 47 | 1011.3 |
| 20260504202035 | 54 | 25 | 10.4 | 18.2 | 0.00 | 0.00 | 0.00 | 47 | 1011.3 |
| 20260504201535 | 53 | 319 | 9.6 | 18.2 | 0.00 | 0.00 | 0.00 | 48 | 1011.2 |
| 20260504201038 | 53 | 360 | 9.6 | 18.2 | 0.00 | 0.00 | 0.00 | 47 | 1011.2 |
| 20260504200535 | 53 | 360 | 9.6 | 15.6 | 0.00 | 0.00 | 0.00 | 47 | 1011.3 |
| 20260504200035 | 53 | 321 | 8.7 | 15.6 | 0.00 | 0.00 | 0.00 | 48 | 1011.3 |
| 20260504195534 | 53 | 346 | 9.6 | 16.5 | 0.00 | 0.00 | 0.00 | 47 | 1011.4 |
| 20260504195034 | 53 | 342 | 9.6 | 16.5 | 0.00 | 0.00 | 0.00 | 48 | 1011.4 |
| 20260504194541 | 54 | 16 | 11.3 | 16.5 | 0.00 | 0.00 | 0.00 | 47 | 1011.5 |
| 20260504194034 | 53 | 315 | 8.7 | 13.9 | 0.00 | 0.00 | 0.00 | 47 | 1011.4 |
| 20260504193536 | 53 | 336 | 7.0 | 14.8 | 0.00 | 0.00 | 0.00 | 47 | 1011.4 |
| 20260504193032 | 54 | 355 | 7.0 | 14.8 | 0.00 | 0.00 | 0.00 | 47 | 1011.3 |
| 20260504192530 | 54 | 310 | 7.0 | 16.5 | 0.00 | 0.00 | 0.00 | 46 | 1011.3 |
| 20260504192035 | 53 | 24 | 6.1 | 13.9 | 0.00 | 0.00 | 0.00 | 48 | 1011.2 |
| 20260504191537 | 53 | 302 | 9.6 | 13.9 | 0.00 | 0.00 | 0.00 | 48 | 1011.4 |
| 20260504191030 | 52 | 17 | 8.7 | 13.9 | 0.00 | 0.00 | 0.00 | 51 | 1011.5 |
| 20260504190530 | 52 | 330 | 2.6 | 8.7 | 0.00 | 0.00 | 0.00 | 52 | 1011.5 |
| 20260504190029 | 52 | 63 | 0.9 | 5.2 | 0.00 | 0.00 | 0.00 | 52 | 1011.5 |
| 20260504185530 | 52 | 56 | 2.6 | 7.0 | 0.00 | 0.00 | 0.00 | 51 | 1011.5 |
| 20260504185035 | 52 | 22 | 0.9 | 7.0 | 0.00 | 0.00 | 0.00 | 51 | 1011.5 |
| 20260504184530 | 52 | 77 | 2.6 | 7.8 | 0.00 | 0.00 | 0.00 | 52 | 1011.5 |
| 20260504184033 | 52 | 53 | 3.5 | 11.3 | 0.00 | 0.00 | 0.00 | 52 | 1011.5 |
| 20260504183527 | 52 | 313 | 4.3 | 9.6 | 0.00 | 0.00 | 0.00 | 52 | 1011.5 |
| 20260504183028 | 52 | 11 | 3.5 | 10.4 | 0.00 | 0.00 | 0.00 | 51 | 1011.6 |
| 20260504182527 | 51 | 71 | 3.5 | 11.3 | 0.00 | 0.00 | 0.00 | 55 | 1011.6 |
| 20260504182027 | 51 | 54 | 6.1 | 11.3 | 0.00 | 0.00 | 0.00 | 53 | 1012.2 |
| 20260504181527 | 50 | 33 | 2.6 | 8.7 | 0.00 | 0.00 | 0.00 | 53 | 1011.8 |
| 20260504181033 | 50 | 81 | 2.6 | 9.6 | 0.00 | 0.00 | 0.00 | 54 | 1011.9 |
| 20260504180528 | 50 | 17 | 4.3 | 9.6 | 0.00 | 0.00 | 0.00 | 56 | 1011.8 |
| 20260504180028 | 50 | 27 | 6.1 | 10.4 | 0.00 | 0.00 | 0.00 | 54 | 1011.8 |
| 20260504175528 | 50 | 41 | 6.1 | 10.4 | 0.00 | 0.00 | 0.00 | 54 | 1011.9 |
| 20260504175026 | 50 | 70 | 5.2 | 13.0 | 0.00 | 0.00 | 0.00 | 54 | 1012.0 |
| 20260504174526 | 50 | 9 | 7.8 | 13.0 | 0.00 | 0.00 | 0.00 | 55 | 1011.9 |
| 20260504174026 | 49 | 30 | 5.2 | 11.3 | 0.00 | 0.00 | 0.00 | 58 | 1011.7 |
| 20260504173525 | 48 | 84 | 6.1 | 12.2 | 0.00 | 0.00 | 0.00 | 57 | 1011.3 |
| 20260504173024 | 48 | 44 | 7.0 | 12.2 | 0.00 | 0.00 | 0.00 | 55 | 1011.4 |
| 20260504172523 | 48 | 65 | 4.3 | 9.6 | 0.00 | 0.00 | 0.00 | 55 | 1011.9 |
| 20260504172023 | 49 | 61 | 3.5 | 11.3 | 0.00 | 0.00 | 0.00 | 54 | 1012.0 |
| 20260504171530 | 50 | 84 | 5.2 | 13.0 | 0.00 | 0.00 | 0.00 | 53 | 1011.8 |
| 20260504171023 | 50 | 51 | 8.7 | 13.0 | 0.00 | 0.00 | 0.00 | 56 | 1011.8 |
| 20260504170521 | 48 | 48 | 6.1 | 12.2 | 0.00 | 0.00 | 0.00 | 58 | 1011.9 |
| 20260504151011 | 48 | 39 | 10.4 | 19.1 | 0.00 | 0.00 | 0.00 | 56 | 1010.5 |
| 20260504150512 | 48 | 71 | 12.2 | 20.9 | 0.00 | 0.00 | 0.00 | 58 | 1010.3 |
| 20260504141006 | 47 | 53 | 6.1 | 15.6 | 0.00 | 0.00 | 0.00 | 62 | 1010.3 |
| 20260504140504 | 48 | 59 | 9.6 | 15.6 | 0.00 | 0.00 | 0.00 | 59 | 1010.3 |
| 20260504130559 | 53 | 273 | 5.2 | 8.7 | 0.00 | 0.00 | 0.00 | 47 | 1008.7 |
| 20260504130159 | 53 | 273 | 5.2 | 8.7 | 0.00 | 0.00 | 0.00 | 46 | 1008.6 |
| 20260504110544 | 48 | 257 | 5.2 | 7.0 | 0.00 | 0.00 | 0.00 | 54 | 1008.5 |
| 20260504100538 | 48 | 257 | 5.2 | 7.8 | 0.00 | 0.00 | 0.00 | 54 | 1008.6 |
| 20260504081529 | 48 | 256 | 4.3 | 7.0 | 0.00 | 0.00 | 0.00 | 55 | 1009.4 |
| 20260504081029 | 48 | 256 | 4.3 | 7.8 | 0.00 | 0.00 | 0.00 | 56 | 1009.5 |
| 20260504080525 | 48 | 267 | 5.2 | 7.8 | 0.00 | 0.00 | 0.00 | 56 | 1009.6 |